Chicago Lansing, IL

3:26 PM CST on December 13, 2017 (GMT -0600)
Lansing Municipal

Weather History for KIGQ - May, 2013

Change the Weather History Date:

Tuesday, May 14, 2013

  Actual Average (KGYY) Record (KGYY)
Temperature  
Mean Temperature 70 °F -  
Max Temperature 87 °F 66 °F 91 °F (1977)
Min Temperature 53 °F 47 °F 37 °F (1960)
Cooling Degree Days 5    
Growing Degree Days 20 (Base 50)    
Moisture  
Dew Point 47 °F    
Average Humidity 44    
Maximum Humidity 55    
Minimum Humidity 27    
Precipitation  
Precipitation 0.00 in - - ()
Sea Level Pressure  
Sea Level Pressure 29.81 in    
Wind  
Wind Speed 11 mph (SW)    
Max Wind Speed 21 mph    
Max Gust Speed 28 mph    
Visibility 10 miles    
Events      
Averages and records for this station are not official NWS values.
T = Trace of Precipitation, MM = Missing Value Source: NWS Daily Summary

Daily Weather History Graph

Daily Weather History Graph

Search for Another Location

Airport or City:

Trip Planner

Search our weather history database for the weather conditions in past years. The results will help you decide how hot, cold, wet, or windy it might be!

Date:

Astronomy

May. 14, 2013 Rise Set
Actual Time 5:31 AM CDT 8:01 PM CDT
Civil Twilight 5:00 AM CDT 8:33 PM CDT
Nautical Twilight 4:20 AM CDT 9:12 PM CDT
Astronomical Twilight 3:36 AM CDT 9:57 PM CDT
Moon 9:11 AM CDT (5/14) 11:48 PM CDT (5/14)
Length of Visible Light 15h 33m
Length of Day
14h 30m
Waxing Crescent, 19% of the Moon is Illuminated
May 14
Waxing Crescent
May 17
First Quarter
May 24
Full
May 31
Last Quarter
Jun 8
New

Hourly Weather History & Observations

Time (CDT) Temp. Heat Index Dew Point Humidity Pressure Visibility Wind Dir Wind Speed Gust Speed Precip Events Conditions
12:15 AM 53.2 °F - 34.2 °F 48% 30.02 in 10.0 mi South 6.9 mph - N/A   Overcast
12:35 AM 54.1 °F - 32.7 °F 44% 30.01 in 10.0 mi South 9.2 mph - N/A   Mostly Cloudy
12:55 AM 54.7 °F - 33.1 °F 44% 30.00 in 10.0 mi South 9.2 mph - N/A   Mostly Cloudy
1:15 AM 54.5 °F - 34.0 °F 46% 29.99 in 10.0 mi South 9.2 mph - N/A   Scattered Clouds
1:35 AM 55.6 °F - 34.0 °F 44% 29.98 in 10.0 mi South 10.4 mph - N/A   Clear
1:55 AM 55.0 °F - 34.9 °F 47% 29.97 in 10.0 mi SSW 10.4 mph - N/A   Clear
2:15 AM 55.0 °F - 35.8 °F 48% 29.96 in 10.0 mi SSW 11.5 mph - N/A   Clear
2:35 AM 54.5 °F - 36.3 °F 50% 29.95 in 10.0 mi SSW 11.5 mph - N/A   Clear
2:55 AM 54.5 °F - 36.3 °F 50% 29.95 in 10.0 mi SSW 10.4 mph 18.4 mph N/A   Clear
3:15 AM 54.0 °F - 36.3 °F 51% 29.94 in 10.0 mi SSW 11.5 mph - N/A   Clear
3:35 AM 54.1 °F - 36.3 °F 51% 29.94 in 10.0 mi SSW 11.5 mph 17.3 mph N/A   Clear
3:55 AM 54.5 °F - 36.0 °F 50% 29.93 in 10.0 mi SSW 12.7 mph 18.4 mph N/A   Clear
4:15 AM 54.0 °F - 35.8 °F 50% 29.92 in 10.0 mi SSW 12.7 mph 18.4 mph N/A   Clear
4:35 AM 53.8 °F - 35.8 °F 51% 29.91 in 10.0 mi South 12.7 mph - N/A   Clear
4:55 AM 53.8 °F - 35.8 °F 51% 29.90 in 10.0 mi SSW 15.0 mph - N/A   Clear
5:15 AM 53.8 °F - 35.8 °F 51% 29.89 in 10.0 mi South 15.0 mph 19.6 mph N/A   Clear
5:35 AM 53.6 °F - 36.3 °F 52% 29.88 in 10.0 mi SSW 13.8 mph - N/A   Clear
5:55 AM 53.6 °F - 36.9 °F 53% 29.88 in 10.0 mi SSW 16.1 mph 20.7 mph N/A   Clear
6:15 AM 54.9 °F - 37.4 °F 52% 29.87 in 10.0 mi SSW 16.1 mph - N/A   Clear
6:35 AM 55.8 °F - 38.3 °F 52% 29.86 in 10.0 mi SSW 15.0 mph 20.7 mph N/A   Clear
6:55 AM 56.7 °F - 39.0 °F 52% 29.86 in 10.0 mi SSW 16.1 mph 24.2 mph N/A   Clear
7:15 AM 57.7 °F - 40.5 °F 53% 29.86 in 10.0 mi SSW 17.3 mph 24.2 mph N/A   Clear
7:35 AM 59.0 °F - 41.5 °F 52% 29.85 in 10.0 mi SSW 16.1 mph 24.2 mph N/A   Clear
7:55 AM 60.1 °F - 42.8 °F 53% 29.84 in 10.0 mi SSW 18.4 mph 24.2 mph N/A   Clear
8:15 AM 61.9 °F - 43.7 °F 51% 29.83 in 10.0 mi SSW 19.6 mph 23.0 mph N/A   Clear
8:35 AM 63.3 °F - 44.6 °F 50% 29.83 in 10.0 mi SW 17.3 mph 27.6 mph N/A   Clear
8:55 AM 65.3 °F - 45.9 °F 49% 29.83 in 10.0 mi SW 19.6 mph 27.6 mph N/A   Clear
9:15 AM 66.7 °F - 47.3 °F 50% 29.82 in 10.0 mi SW 18.4 mph 24.2 mph N/A   Clear
9:35 AM 68.4 °F - 47.8 °F 48% 29.81 in 10.0 mi SW 20.7 mph 26.5 mph N/A   Clear
9:55 AM 69.6 °F - 48.9 °F 48% 29.81 in 10.0 mi SW 18.4 mph 24.2 mph N/A   Clear
10:15 AM 71.1 °F - 50.0 °F 47% 29.81 in 10.0 mi SW 18.4 mph 23.0 mph N/A   Clear
10:35 AM 72.5 °F - 50.4 °F 46% 29.80 in 10.0 mi WSW 16.1 mph 24.2 mph N/A   Clear
10:55 AM 73.8 °F - 51.6 °F 46% 29.79 in 10.0 mi SW 16.1 mph 23.0 mph N/A   Clear
11:15 AM 75.2 °F - 52.0 °F 44% 29.78 in 10.0 mi WSW 15.0 mph 21.9 mph N/A   Clear
11:35 AM 76.8 °F - 53.2 °F 44% 29.78 in 10.0 mi SW 16.1 mph - N/A   Clear
11:55 AM 77.7 °F - 54.1 °F 44% 29.77 in 10.0 mi West 13.8 mph 19.6 mph N/A   Clear
12:15 PM 78.4 °F - 54.1 °F 43% 29.78 in 10.0 mi West 15.0 mph 20.7 mph N/A   Clear
12:35 PM 79.2 °F - 54.0 °F 42% 29.77 in 10.0 mi WSW 16.1 mph 20.7 mph N/A   Clear
12:55 PM 80.8 °F 80.6 °F 55.0 °F 41% 29.77 in 10.0 mi West 9.2 mph 18.4 mph N/A   Clear
1:15 PM 81.9 °F 81.3 °F 55.2 °F 40% 29.77 in 10.0 mi West 13.8 mph - N/A   Clear
1:35 PM 82.6 °F 81.6 °F 54.0 °F 37% 29.77 in 10.0 mi West 11.5 mph 19.6 mph N/A   Clear
1:55 PM 83.1 °F 82.1 °F 54.5 °F 37% 29.76 in 10.0 mi West 10.4 mph - N/A   Clear
2:15 PM 84.0 °F - 52.7 °F 34% 29.76 in 10.0 mi West 10.4 mph 16.1 mph N/A   Clear
2:35 PM 84.2 °F - 52.5 °F 33% 29.76 in 10.0 mi West 10.4 mph 16.1 mph N/A   Clear
2:55 PM 85.1 °F 83.3 °F 53.2 °F 33% 29.76 in 10.0 mi West 8.1 mph - N/A   Clear
3:15 PM 85.3 °F - 52.3 °F 32% 29.75 in 10.0 mi WSW 5.8 mph - N/A   Clear
3:35 PM 86.0 °F - 51.3 °F 30% 29.75 in 10.0 mi WSW 8.1 mph - N/A   Clear
3:55 PM 86.9 °F - 49.6 °F 28% 29.75 in 10.0 mi WNW 10.4 mph - N/A   Clear
4:15 PM 87.1 °F - 49.6 °F 27% 29.75 in 10.0 mi NW 6.9 mph - N/A   Clear
4:35 PM 87.3 °F - 50.4 °F 28% 29.75 in 10.0 mi West 6.9 mph - N/A   Clear
4:55 PM 87.3 °F - 50.0 °F 28% 29.75 in 10.0 mi WSW 6.9 mph - N/A   Clear
5:15 PM 86.9 °F - 50.0 °F 28% 29.74 in 10.0 mi WSW 4.6 mph - N/A   Clear
5:35 PM 86.9 °F 84.8 °F 53.2 °F 31% 29.73 in 10.0 mi Calm Calm - N/A   Clear
5:55 PM 86.9 °F - 50.7 °F 29% 29.72 in 10.0 mi SW 6.9 mph - N/A   Clear
6:15 PM 85.3 °F - 51.8 °F 31% 29.71 in 10.0 mi SSW 8.1 mph - N/A   Clear
6:35 PM 83.8 °F - 52.2 °F 33% 29.70 in 10.0 mi South 9.2 mph - N/A   Clear
6:55 PM 82.6 °F - 52.9 °F 36% 29.69 in 10.0 mi SSW 8.1 mph - N/A   Clear
7:15 PM 78.8 °F - 56.5 °F 46% 29.68 in 10.0 mi South 6.9 mph - N/A   Clear
7:35 PM 77.2 °F - 53.1 °F 43% 29.68 in 10.0 mi South 8.1 mph - N/A   Clear
7:55 PM 75.2 °F - 52.2 °F 44% 29.68 in 10.0 mi South 8.1 mph - N/A   Clear
8:15 PM 73.2 °F - 50.9 °F 45% 29.68 in 10.0 mi South 8.1 mph - N/A   Clear
8:35 PM 73.2 °F - 50.9 °F 45% 29.68 in 10.0 mi South 9.2 mph - N/A   Clear
8:55 PM 75.9 °F - 50.4 °F 41% 29.68 in 10.0 mi SSW 10.4 mph - N/A   Clear
9:15 PM 78.3 °F - 53.4 °F 42% 29.70 in 10.0 mi SSW 11.5 mph 16.1 mph N/A   Clear
9:35 PM 79.3 °F - 56.3 °F 45% 29.70 in 10.0 mi SSW 10.4 mph - N/A   Clear
9:55 PM 78.3 °F - 57.2 °F 48% 29.71 in 10.0 mi SSW 11.5 mph - N/A   Clear
10:15 PM 77.4 °F - 57.2 °F 50% 29.71 in 10.0 mi SSW 11.5 mph - N/A   Clear
10:35 PM 77.0 °F - 57.2 °F 50% 29.72 in 10.0 mi SW 9.2 mph - N/A   Clear
10:55 PM 77.0 °F - 57.0 °F 50% 29.74 in 10.0 mi SW 5.8 mph - N/A   Clear
11:15 PM 75.2 °F - 57.2 °F 53% 29.73 in 10.0 mi SW 10.4 mph - N/A   Clear
11:35 PM 74.7 °F - 57.0 °F 54% 29.71 in 10.0 mi SW 11.5 mph - N/A   Clear
11:55 PM 73.6 °F - 56.7 °F 55% 29.71 in 10.0 mi SSW 10.4 mph - N/A   Clear